Weather History for LTAU - October, 2012

Change the Weather History Date:

Sunday, October 28, 2012

  Actual Average Record
Temperature  
Mean Temperature 52 °F -  
Max Temperature 71 °F 54 °F 80 °F (2004)
Min Temperature 33 °F 30 °F 23 °F (2013)
Degree Days  
Heating Degree Days 13    
Growing Degree Days 2 (Base 50)    
Moisture  
Dew Point 36 °F    
Average Humidity 61    
Maximum Humidity 93    
Minimum Humidity 17    
Precipitation  
Precipitation 0.00 in - - ()
Sea Level Pressure  
Sea Level Pressure 30.13 in    
Wind  
Wind Speed 2 mph ()    
Max Wind Speed 6 mph    
Max Gust Speed -    
Visibility 7.7 miles    
Events      
Averages and records for this station are not official NWS values.
T = Trace of Precipitation, MM = Missing Value Source: Averaged Metar Reports

Daily Weather History Graph

Daily Weather History Graph

Search for Another Location

Airport or City:

Trip Planner

Search our weather history database for the weather conditions in past years. The results will help you decide how hot, cold, wet, or windy it might be!

Date:

Astronomy

Oct. 28, 2012 Rise Set
Actual Time 6:00 AM EET 4:42 PM EET
Civil Twilight 5:33 AM EET 5:09 PM EET
Nautical Twilight 5:02 AM EET 5:40 PM EET
Astronomical Twilight 4:31 AM EET 6:11 PM EET
Moon 3:48 PM EET (10/28) 4:34 AM EET (10/28)
Length of Visible Light 11h 36m
Length of Day
10h 41m
Waxing Gibbous, 98% of the Moon is Illuminated
Oct 28
Waxing Gibbous
Oct 29
Full
Nov 7
Last Quarter
Nov 14
New
Nov 20
First Quarter

Hourly Weather History & Observations

Time (EET) Temp. Windchill Dew Point Humidity Pressure Visibility Wind Dir Wind Speed Gust Speed Precip Events Conditions
12:20 AM 41.0 °F 38.0 °F 33.8 °F 76% 30.09 in - NE 4.6 mph - N/A   Clear
12:50 AM 39.2 °F 37.0 °F 33.8 °F 81% 30.09 in - NE 3.5 mph - N/A   Clear
1:20 AM 39.2 °F 37.0 °F 33.8 °F 81% 30.09 in - NE 3.5 mph - N/A   Clear
1:50 AM 39.2 °F - 33.8 °F 81% 30.09 in - Calm Calm - N/A   Clear
2:20 AM 37.4 °F - 33.8 °F 87% 30.09 in - Calm Calm - N/A   Clear
2:50 AM 37.4 °F - 32.0 °F 81% 30.09 in - NNE 2.3 mph - N/A   Clear
3:00 AM 37 °F - 32 °F 75%  in 12 mi NNE 2.3 mph - -  
3:20 AM 35.6 °F - 32.0 °F 87% 30.09 in - NNE 2.3 mph - N/A   Clear
3:50 AM 37.4 °F - 33.8 °F 87% 30.09 in - Calm Calm - N/A   Clear
3:20 AM 37.4 °F - 33.8 °F 87% 30.09 in - NE 1.2 mph - N/A   Clear
3:50 AM 33.8 °F 29.6 °F 30.2 °F 87% 30.12 in - NE 4.6 mph - N/A   Clear
4:20 AM 35.6 °F - 32.0 °F 87% 30.12 in - ENE 2.3 mph - N/A   Clear
4:50 AM 35.6 °F - 33.8 °F 93% 30.12 in - NNE 2.3 mph - N/A   Clear
5:20 AM 33.8 °F - 32.0 °F 93% 30.12 in - NE 1.2 mph - N/A   Clear
5:50 AM 33.8 °F - 32.0 °F 93% 30.12 in - ENE 2.3 mph - N/A   Clear
6:20 AM 35.6 °F - 33.8 °F 93% 30.15 in - NE 1.2 mph - N/A   Clear
6:50 AM 37.4 °F - 33.8 °F 87% 30.15 in - ENE 1.2 mph - N/A   Clear
7:20 AM 42.8 °F - 37.4 °F 81% 30.15 in - Variable 1.2 mph - N/A   Clear
7:50 AM 46.4 °F - 37.4 °F 71% 30.18 in - Variable 2.3 mph - N/A   Clear
8:00 AM 46 °F - 37 °F 62%  in 12 mi NNE 2.3 mph - -  
8:20 AM 50.0 °F - 37.4 °F 62% 30.18 in - Calm Calm - N/A   Clear
8:50 AM 51.8 °F - 39.2 °F 62% 30.18 in - Calm Calm - N/A   Clear
9:20 AM 55.4 °F - 39.2 °F 54% 30.18 in - Calm Calm - N/A   Clear
9:50 AM 60.8 °F - 41.0 °F 48% 30.18 in - Calm Calm - N/A   Clear
10:20 AM 60.8 °F - 39.2 °F 45% 30.18 in - Variable 1.2 mph - N/A   Clear
10:50 AM 62.6 °F - 39.2 °F 42% 30.15 in 6.2 mi Variable 1.2 mph - N/A   Scattered Clouds
11:20 AM 64.4 °F - 39.2 °F 40% 30.15 in 6.2 mi Variable 1.2 mph - N/A   Scattered Clouds
11:50 AM 68.0 °F - 37.4 °F 33% 30.12 in 6.2 mi Calm Calm - N/A   Scattered Clouds
12:20 PM 68.0 °F - 35.6 °F 30% 30.12 in 6.2 mi WSW 4.6 mph - N/A   Scattered Clouds
12:50 PM 69.8 °F - 35.6 °F 28% 30.12 in 6.2 mi Variable 2.3 mph - N/A   Scattered Clouds
1:20 PM 68.0 °F - 35.6 °F 30% 30.12 in 6.2 mi WSW 3.5 mph - N/A   Scattered Clouds
1:50 PM 69.8 °F - 35.6 °F 28% 30.09 in 6.2 mi Variable 2.3 mph - N/A   Scattered Clouds
2:00 PM 70 °F - 35 °F 17%  in 12 mi NW 2.3 mph - -   Scattered Clouds
2:20 PM 69.8 °F - 33.8 °F 27% 30.09 in 6.2 mi Variable 2.3 mph - N/A   Scattered Clouds
2:50 PM 69.8 °F - 32.0 °F 25% 30.09 in 6.2 mi West 5.8 mph - N/A   Scattered Clouds
3:20 PM 69.8 °F - 32.0 °F 25% 30.09 in 6.2 mi West 4.6 mph - N/A   Mostly Cloudy
3:50 PM 69.8 °F - 33.8 °F 27% 30.09 in 6.2 mi West 5.8 mph - N/A   Mostly Cloudy
4:20 PM 66.2 °F - 33.8 °F 30% 30.09 in - West 2.3 mph - N/A   Clear
4:50 PM 62.6 °F - 32.0 °F 32% 30.09 in - WNW 1.2 mph - N/A   Clear
5:20 PM 57.2 °F - 35.6 °F 44% 30.12 in - Calm Calm - N/A   Clear
5:50 PM 53.6 °F - 39.2 °F 58% 30.12 in - Calm Calm - N/A   Clear
6:20 PM 51.8 °F - 37.4 °F 58% 30.12 in - Calm Calm - N/A   Clear
6:50 PM 51.8 °F - 35.6 °F 54% 30.15 in - Variable 1.2 mph - N/A   Clear
7:20 PM 50.0 °F - 37.4 °F 62% 30.15 in - Calm Calm - N/A   Clear
7:50 PM 50.0 °F - 37.4 °F 62% 30.15 in - Calm Calm - N/A   Clear
8:00 PM 50 °F - 37 °F 51%  in 12 mi Calm Calm - -   Clear
8:20 PM 50.0 °F - 39.2 °F 66% 30.18 in - Calm Calm - N/A   Clear
8:50 PM 48.2 °F - 39.2 °F 71% 30.18 in - Calm Calm - N/A   Clear
9:20 PM 46.4 °F - 37.4 °F 71% 30.18 in - NE 2.3 mph - N/A   Clear
9:50 PM 48.2 °F - 37.4 °F 66% 30.18 in - NNE 2.3 mph - N/A   Clear
10:20 PM 46.4 °F - 37.4 °F 71% 30.18 in - Calm Calm - N/A   Clear
10:50 PM 46.4 °F 45.2 °F 37.4 °F 71% 30.18 in - ENE 3.5 mph - N/A   Clear